Oskaloosa, IA

8:09 AM CDT on June 25, 2017 (GMT -0500)
Oskaloosa Municipal

Weather History for KOOA - October, 2011

Change the Weather History Date:

Monday, October 24, 2011

  Actual Average (KOTM) Record (KOTM)
Temperature  
Mean Temperature 54 °F -  
Max Temperature 75 °F 60 °F 85 °F (1940)
Min Temperature 33 °F 41 °F 20 °F (2006)
Degree Days  
Heating Degree Days 11    
Growing Degree Days 4 (Base 50)    
Moisture  
Dew Point 38 °F    
Average Humidity 60    
Maximum Humidity 93    
Minimum Humidity 22    
Precipitation  
Precipitation 0.00 in - - ()
Sea Level Pressure  
Sea Level Pressure 30.07 in    
Wind  
Wind Speed 4 mph (SW)    
Max Wind Speed 13 mph    
Max Gust Speed -    
Visibility 10 miles    
Events      
Averages and records for this station are not official NWS values.
T = Trace of Precipitation, MM = Missing Value Source: NWS Daily Summary

Daily Weather History Graph

Daily Weather History Graph

Search for Another Location

Airport or City:

Trip Planner

Search our weather history database for the weather conditions in past years. The results will help you decide how hot, cold, wet, or windy it might be!

Date:

Astronomy

Oct. 24, 2011 Rise Set
Actual Time 7:31 AM CDT 6:16 PM CDT
Civil Twilight 7:03 AM CDT 6:44 PM CDT
Nautical Twilight 6:31 AM CDT 7:16 PM CDT
Astronomical Twilight 5:59 AM CDT 7:48 PM CDT
Moon 4:49 AM CDT (10/24) 4:42 PM CDT (10/24)
Length of Visible Light 11h 41m
Length of Day
10h 44m
Waning Crescent, 7% of the Moon is Illuminated
Oct 24
Waning Crescent
Oct 26
New
Nov 2
First Quarter
Nov 10
Full
Nov 18
Last Quarter

Hourly Weather History & Observations

Time (CDT) Temp. Windchill Dew Point Humidity Pressure Visibility Wind Dir Wind Speed Gust Speed Precip Events Conditions
12:15 AM 53.6 °F - 42.8 °F 67% 29.98 in 10.0 mi NNW 3.5 mph - N/A   Clear
12:35 AM 51.8 °F - 42.8 °F 71% 29.99 in 10.0 mi Calm Calm - N/A   Clear
12:55 AM 46.4 °F 45.2 °F 41.0 °F 81% 30.00 in 10.0 mi NW 3.5 mph - N/A   Clear
1:15 AM 44.6 °F 42.2 °F 41.0 °F 87% 30.00 in 10.0 mi NW 4.6 mph - N/A   Clear
1:35 AM 46.4 °F 43.5 °F 41.0 °F 81% 30.01 in 10.0 mi WNW 5.8 mph - N/A   Clear
1:55 AM 46.4 °F 44.3 °F 41.0 °F 81% 30.02 in 10.0 mi WNW 4.6 mph - N/A   Clear
2:15 AM 46.4 °F 44.3 °F 41.0 °F 81% 30.02 in 10.0 mi WNW 4.6 mph - N/A   Clear
2:35 AM 44.6 °F 42.2 °F 39.2 °F 81% 30.03 in 10.0 mi West 4.6 mph - N/A   Clear
2:55 AM 42.8 °F 40.1 °F 37.4 °F 81% 30.03 in 10.0 mi WNW 4.6 mph - N/A   Clear
3:15 AM 42.8 °F - 37.4 °F 81% 30.03 in 10.0 mi Calm Calm - N/A   Clear
3:35 AM 42.8 °F 41.1 °F 37.4 °F 81% 30.02 in 10.0 mi NW 3.5 mph - N/A   Clear
3:55 AM 41.0 °F 39.0 °F 35.6 °F 81% 30.03 in 10.0 mi NW 3.5 mph - N/A   Clear
4:15 AM 41.0 °F 37.1 °F 37.4 °F 87% 30.04 in 10.0 mi WSW 5.8 mph - N/A   Clear
4:35 AM 41.0 °F 38.0 °F 37.4 °F 87% 30.05 in 10.0 mi West 4.6 mph - N/A   Clear
4:55 AM 41.0 °F 39.0 °F 35.6 °F 81% 30.05 in 10.0 mi WNW 3.5 mph - N/A   Clear
5:15 AM 41.0 °F 38.0 °F 37.4 °F 87% 30.06 in 10.0 mi West 4.6 mph - N/A   Clear
5:35 AM 42.8 °F 40.1 °F 37.4 °F 81% 30.07 in 10.0 mi WNW 4.6 mph - N/A   Clear
5:55 AM 41.0 °F 39.0 °F 37.4 °F 87% 30.07 in 10.0 mi WNW 3.5 mph - N/A   Clear
6:15 AM 41.0 °F 39.0 °F 35.6 °F 81% 30.08 in 10.0 mi West 3.5 mph - N/A   Clear
6:35 AM 39.2 °F 37.0 °F 35.6 °F 87% 30.09 in 10.0 mi West 3.5 mph - N/A   Clear
6:55 AM 35.6 °F - 32.0 °F 87% 30.09 in 10.0 mi Calm Calm - N/A   Clear
7:15 AM 33.8 °F - 32.0 °F 93% 30.09 in 10.0 mi Calm Calm - N/A   Clear
7:35 AM 37.4 °F - 33.8 °F 87% 30.10 in 10.0 mi Calm Calm - N/A   Clear
7:55 AM 37.4 °F 34.9 °F 35.6 °F 93% 30.12 in 10.0 mi WSW 3.5 mph - N/A   Clear
8:15 AM 39.2 °F - 35.6 °F 87% 30.12 in 10.0 mi Calm Calm - N/A   Clear
8:35 AM 42.8 °F - 41.0 °F 93% 30.13 in 10.0 mi Calm Calm - N/A   Clear
8:55 AM 46.4 °F - 42.8 °F 87% 30.13 in 10.0 mi Calm Calm - N/A   Clear
9:15 AM 48.2 °F - 42.8 °F 82% 30.13 in 10.0 mi Calm Calm - N/A   Clear
9:35 AM 50.0 °F - 42.8 °F 76% 30.13 in 10.0 mi Calm Calm - N/A   Clear
9:55 AM 51.8 °F - 44.6 °F 76% 30.13 in 10.0 mi Calm Calm - N/A   Clear
10:15 AM 53.6 °F - 44.6 °F 72% 30.13 in 10.0 mi Calm Calm - N/A   Clear
10:35 AM 57.2 °F - 44.6 °F 63% 30.14 in 10.0 mi Calm Calm - N/A   Clear
10:55 AM 59.0 °F - 44.6 °F 59% 30.14 in 10.0 mi SW 3.5 mph - N/A   Clear
11:15 AM 60.8 °F - 42.8 °F 52% 30.13 in 10.0 mi South 3.5 mph - N/A   Clear
11:35 AM 62.6 °F - 42.8 °F 48% 30.13 in 10.0 mi Calm Calm - N/A   Clear
11:55 AM 64.4 °F - 41.0 °F 42% 30.13 in 10.0 mi South 5.8 mph - N/A   Clear
12:15 PM 64.4 °F - 41.0 °F 42% 30.12 in 10.0 mi South 5.8 mph - N/A   Clear
12:35 PM 68.0 °F - 41.0 °F 37% 30.11 in 10.0 mi South 6.9 mph - N/A   Clear
12:55 PM 68.0 °F - 41.0 °F 37% 30.10 in 10.0 mi South 6.9 mph - N/A   Clear
1:15 PM 69.8 °F - 41.0 °F 35% 30.10 in 10.0 mi SSW 8.1 mph - N/A   Clear
1:35 PM 69.8 °F - 39.2 °F 33% 30.09 in 10.0 mi SSW 5.8 mph - N/A   Clear
1:55 PM 71.6 °F - 37.4 °F 29% 30.08 in 10.0 mi SW 9.2 mph - N/A   Clear
2:15 PM 73.4 °F - 35.6 °F 25% 30.07 in 10.0 mi SW 12.7 mph - N/A   Clear
2:35 PM 73.4 °F - 35.6 °F 25% 30.06 in 10.0 mi SSW 11.5 mph - N/A   Clear
2:55 PM 73.4 °F - 33.8 °F 23% 30.06 in 10.0 mi SSW 6.9 mph - N/A   Clear
3:15 PM 75.2 °F - 33.8 °F 22% 30.05 in 10.0 mi SW 10.4 mph - N/A   Clear
3:35 PM 75.2 °F - 33.8 °F 22% 30.05 in 10.0 mi SW 9.2 mph - N/A   Clear
3:55 PM 73.4 °F - 33.8 °F 23% 30.05 in 10.0 mi SSW 9.2 mph - N/A   Clear
4:15 PM 73.4 °F - 33.8 °F 23% 30.04 in 10.0 mi South 6.9 mph - N/A   Clear
4:35 PM 73.4 °F - 33.8 °F 23% 30.04 in 10.0 mi SSW 8.1 mph - N/A   Clear
4:55 PM 73.4 °F - 32.0 °F 22% 30.03 in 10.0 mi SSW 6.9 mph - N/A   Clear
5:15 PM 71.6 °F - 32.0 °F 23% 30.03 in 10.0 mi SSW 4.6 mph - N/A   Clear
5:35 PM 69.8 °F - 33.8 °F 27% 30.02 in 10.0 mi South 3.5 mph - N/A   Clear
5:55 PM 66.2 °F - 37.4 °F 35% 30.02 in 10.0 mi SSE 3.5 mph - N/A   Clear
6:15 PM 64.4 °F - 39.2 °F 40% 30.02 in 10.0 mi SSE 4.6 mph - N/A   Clear
6:35 PM 62.6 °F - 37.4 °F 39% 30.01 in 10.0 mi SSE 4.6 mph - N/A   Clear
6:55 PM 62.6 °F - 37.4 °F 39% 30.01 in 10.0 mi SE 4.6 mph - N/A   Clear
7:15 PM 62.6 °F - 37.4 °F 39% 30.01 in 10.0 mi SE 6.9 mph - N/A   Clear
7:35 PM 60.8 °F - 37.4 °F 42% 30.01 in 10.0 mi SE 5.8 mph - N/A   Clear
7:55 PM 59.0 °F - 39.2 °F 48% 30.01 in 10.0 mi SE 5.8 mph - N/A   Clear
8:15 PM 59.0 °F - 39.2 °F 48% 30.00 in 10.0 mi SE 5.8 mph - N/A   Clear
8:35 PM 57.2 °F - 39.2 °F 51% 30.00 in 10.0 mi SE 5.8 mph - N/A   Clear
8:55 PM 59.0 °F - 39.2 °F 48% 30.00 in 10.0 mi SE 6.9 mph - N/A   Clear
9:35 PM 55.4 °F - 41.0 °F 58% 29.99 in 10.0 mi ESE 8.1 mph - N/A   Clear
10:15 PM 55.4 °F - 41.0 °F 58% 29.98 in 10.0 mi SE 8.1 mph - N/A   Clear
10:35 PM 55.4 °F - 41.0 °F 58% 29.98 in 10.0 mi SE 8.1 mph - N/A   Clear
10:55 PM 55.4 °F - 39.2 °F 54% 29.97 in 10.0 mi SE 8.1 mph - N/A   Clear
11:15 PM 55.4 °F - 39.2 °F 54% 29.96 in 10.0 mi SE 8.1 mph - N/A   Clear
11:35 PM 55.4 °F - 41.0 °F 58% 29.95 in 10.0 mi SSE 10.4 mph - N/A   Clear
11:55 PM 59.0 °F - 39.2 °F 48% 29.94 in 10.0 mi SSE 10.4 mph - N/A   Clear